Location: Unspecified
(48.5670°N, 0.0000°E)
Time: 19:16:39
(UTC+00:00)

Vanguard 2 Rocket - Pass Details

Date: 26 August 2019
Orbit: 554 x 3327 km, 32.9° (Epoch: 17 October)

Event Time Altitude Azimuth Distance (km) Brightness Sun altitude
Rises 06:36:34 0° 268° (W) 5,977 10.4 13.6°
Reaches altitude 10° 06:40:30 10° 260° (W) 5,299 10.2 14.2°
Maximum altitude 06:55:03 37° 201° (SSW) 4,269 10.3 16.6°
Drops below altitude 10° 07:12:15 10° 144° (SE) 6,194 11.9 19.4°
Sets 07:17:23 0° 137° (SE) 7,052 12.2 20.3°
